Regional Weather Roundup
Issued by NWS Goodland, KS

Home | Current Version | Previous Version | Graphics & Text | Print | Product List | Glossary On
Versions: 1 2 3 4 5 6 7 8 9 10 11 12 13 14 15 16 17 18 19 20 21 22 23 24 25 26 27 28 29 30 31 32 33 34 35 36 37 38 39 40 41 42 43 44 45 46 47 48 49 50
000
ASUS43 KGLD 252159
RWRGLD

GOODLAND FORECAST AREA HOURLY WEATHER ROUNDUP
NATIONAL WEATHER SERVICE GOODLAND KS
400 PM MDT FRI JUL 25 2014

...OFFICIAL OBSERVATIONS...

CITY           SKY/WX    TMP DP  RH WIND       PRES   REMARKS
GOODLAND KS    MOSUNNY   96  62  32 N10       29.94F
HILL CITY KS   MOSUNNY  102  63  27 N14       29.81F HX 104
IMPERIAL NEB   SUNNY     93  59  31 N8        29.91F
MCCOOK NEB     SUNNY     95  63  34 N7        29.86F
AKRON CO       SUNNY     94  46  19 SE9       30.00F
BURLINGTON CO  SUNNY     95  55  26 E13       29.98F
LIMON CO       MOSUNNY   94  37  13 E9        30.06F
$$

...UNOFFICIAL OBSERVATIONS...

CITY           SKY/WX    TMP DP  RH WIND       PRES   REMARKS
COLBY KS       SUNNY     93  66  40 N8        29.91F
GOVE KS          N/A    101  32   9 MISG        N/A
NORTON KS      SUNNY     93  59  31 N9        29.84S
SHARON SPRINGS   N/A    100  60  26 NE7G20      N/A  HX 100
WAKEENEY KS      N/A    104  52  17 MISG        N/A  HX 102
TRENTON NEB      N/A     91  32  12 N10         N/A
KIT CARSON CO    N/A     97  54  23 N12G25      N/A
YUMA CO          N/A     92  51  24 E7          N/A
$$



USA.gov is the U.S. government's official web portal to all federal, state and local government web resources and services.